Weather History for Flagstaff, AZ

Change the Weather History Date:

Friday, June 8, 2012

  Actual Average Record
Temperature  
Mean Temperature 59 °F 58 °F  
Max Temperature 78 °F 76 °F 91 °F (2013)
Min Temperature 40 °F 39 °F 24 °F (1950)
Degree Days  
Heating Degree Days 6 8  
Month to date heating degree days 44 69  
Since 1 June heating degree days 44  
Since 1 July heating degree days 6508 6842  
Cooling Degree Days 0 0  
Month to date cooling degree days 0 0  
Year to date cooling degree days 0 0  
Since 1 June cooling degree days 0  
Growing Degree Days 10 (Base 50)    
Moisture  
Dew Point 18 °F    
Average Humidity 24    
Maximum Humidity 40    
Minimum Humidity 7    
Precipitation  
Precipitation 0.00 in 0.01 in 0.34 in (1907)
Month to date precipitation 0.00 0.09  
Year to date precipitation 4.46 8.20  
Snow  
Snow 0.00 in 0.00 in 0.50 in (1907)
Month to date snowfall 0.0 0.1  
Since 1 July snowfall 102.9 101.8  
Snow Depth 0.00 in    
Sea Level Pressure  
Sea Level Pressure 29.84 in    
Wind  
Wind Speed 12 mph (SW)    
Max Wind Speed 32 mph    
Max Gust Speed 40 mph    
Visibility 10 miles    
Events      
T = Trace of Precipitation, MM = Missing Value Source: NWS Daily Summary

Daily Weather History Graph

Daily Weather History Graph

Search for Another Location

Airport:

Trip Planner

Search our weather history database for the weather conditions in past years. The results will help you decide how hot, cold, wet, or windy it might be!

Date:

Astronomy

Jun. 08, 2012 Rise Set
Actual Time 5:11 AM MST 7:39 PM MST
Civil Twilight 4:42 AM MST 8:09 PM MST
Nautical Twilight 4:05 AM MST 8:46 PM MST
Astronomical Twilight 3:25 AM MST 9:26 PM MST
Moon 11:15 PM MST (6/8) 9:48 AM MST (6/8)
Length of Visible Light 15h 27m
Length of Day
14h 28m
Waning Gibbous, 76% of the Moon is Illuminated
Jun 8
Waning Gibbous
Jun 11
Last Quarter
Jun 19
New
Jun 26
First Quarter
Jul 3
Full

Hourly Weather History & Observations

Time (MST) Temp. Dew Point Humidity Pressure Visibility Wind Dir Wind Speed Gust Speed Precip Events Conditions
12:57 AM 46.9 °F 18.0 °F 32% 29.89 in 10.0 mi SSW 3.5 mph - N/A   Clear
1:57 AM 45.0 °F 18.0 °F 34% 29.88 in 10.0 mi Calm Calm - N/A   Clear
2:57 AM 42.1 °F 19.0 °F 40% 29.88 in 10.0 mi Calm Calm - N/A   Clear
3:57 AM 43.0 °F 19.0 °F 38% 29.88 in 10.0 mi Calm Calm - N/A   Clear
4:57 AM 42.1 °F 19.9 °F 41% 29.89 in 10.0 mi Calm Calm - N/A   Clear
5:57 AM 44.1 °F 21.0 °F 40% 29.89 in 10.0 mi Calm Calm - N/A   Clear
6:57 AM 57.9 °F 28.0 °F 32% 29.86 in 10.0 mi Calm Calm - N/A   Clear
7:57 AM 64.9 °F 23.0 °F 20% 29.87 in 10.0 mi SW 9.2 mph - N/A   Clear
8:57 AM 68.0 °F 24.1 °F 19% 29.87 in 10.0 mi SW 18.4 mph 26.5 mph N/A   Clear
9:57 AM 71.1 °F 19.9 °F 14% 29.88 in 10.0 mi SSW 19.6 mph 27.6 mph N/A   Clear
10:57 AM 73.0 °F 19.9 °F 14% 29.88 in 10.0 mi SW 19.6 mph 28.8 mph N/A   Clear
11:57 AM 75.9 °F 19.0 °F 12% 29.87 in 10.0 mi WSW 19.6 mph 28.8 mph N/A   Clear
12:57 PM 75.9 °F 17.1 °F 11% 29.86 in 10.0 mi SSW 26.5 mph 34.5 mph N/A   Clear
1:57 PM 77.0 °F 12.0 °F 8% 29.86 in 10.0 mi SSW 23.0 mph 39.1 mph N/A   Clear
2:57 PM 78.1 °F 10.0 °F 7% 29.86 in 10.0 mi SW 25.3 mph 39.1 mph N/A   Clear
3:57 PM 78.1 °F 12.0 °F 8% 29.83 in 10.0 mi SW 27.6 mph 34.5 mph N/A   Clear
4:57 PM 75.9 °F 15.1 °F 10% 29.83 in 10.0 mi SSW 24.2 mph 34.5 mph N/A   Clear
5:57 PM 73.9 °F 16.0 °F 11% 29.82 in 10.0 mi SSW 24.2 mph 28.8 mph N/A   Clear
6:57 PM 71.1 °F 18.0 °F 13% 29.78 in 10.0 mi SW 21.9 mph 29.9 mph N/A   Clear
7:57 PM 66.9 °F 19.9 °F 17% 29.77 in 10.0 mi SW 18.4 mph 23.0 mph N/A   Clear
8:57 PM 64.9 °F 19.9 °F 18% 29.77 in 10.0 mi WSW 9.2 mph - N/A   Clear
9:57 PM 57.0 °F 19.0 °F 23% 29.79 in 10.0 mi Calm Calm - N/A   Clear
10:57 PM 52.0 °F 18.0 °F 26% 29.79 in 10.0 mi Calm Calm - N/A   Clear
11:57 PM 51.1 °F 17.1 °F 26% 29.77 in 10.0 mi West 4.6 mph - N/A   Clear